SL-8 R/B

Satellite information

Favourite Embed

Satellite Type and Status

ROCKET BODYIN ORBIT

Key statistics

Satellite SL-8 R/B at a glance.

Uptime

15942

Days in orbit

Revolutions

≈ 14.4

Per day

Orbit

LEO

Low Earth Orbit

Inclination

74.0

Latest

Satellite identification and parameters

Extended collection of information and parameters for SL-8 R/B.

Object identification

Identified? True

Debris? False

Object name: SL-8 R/B

International designator: 1982-001B

Object number (NORAD): 13028

Object ID (CCSDS): 13028

Country: COMMONWEALTH OF INDEPENDENT STATES (CIS)

Current information (Y/N): Y

RCS size: LARGE

Orbital parameters

Period: 100.02 minutes

Inclination: 74.0384 deg

SMA: 7137.583 km

Apoapsis: 773.839 km

Periapsis: 745.057 km

RAAN: 265.6621 deg

Eccentricy: 0.00201625

Argument of periapsis: 324.2993 deg

Mean anomaly: 35.6812 deg

Mean motion: 14.39713158 rev/day

Mean motion (dot): 0.00000237 rev/day2

B* drag term: 0.000083986712 1/REarth

Two-line elements (TLE)

Creation date: Aug. 31, 2025, 2:26 a.m.

Reference frame: TEME

Reference center: EARTH

Epoch: Aug. 30, 2025, 6:32 p.m. UTC

TLE line 0: 0 SL-8 R/B

TLE line 1: 1 13028U 82001B 25242.77246031 .00000237 00000-0 83987-4 0 9991

TLE line 2: 2 13028 74.0384 265.6621 0020162 324.2993 35.6812 14.39713158287793

Live tracking on map

Real-time ground track for satellite SL-8 R/B.

In-orbit conjunctions

A list of the most updated potential collisions computed for object SL-8 R/B.

Target Orbit TCA Probability of collision Miss distance Type
COSMOS 1275 DEB LEO 2025-05-13 05:11:29 0.0001062089 450.0 (m) DEBRIS
COSMOS 1818 COOLANT LEO 2025-04-15 16:44:28 0.001061815 311.0 (m) DEBRIS
COSMOS 1818 COOLANT LEO 2025-04-15 08:24:11 0.001006052 612.0 (m) DEBRIS
DELTA 1 DEB SSO 2025-02-06 17:25:05 0.0003829527 637.0 (m) DEBRIS
FENGYUN 1C DEB SSO 2024-09-16 04:08:29 0.0005475273 383.0 (m) DEBRIS

Associated space launch

Military communications satellite

SL-8 R/B was lifted into orbit during the mission ‘Kosmos-3M | Strela-2M 26’, on board a Kosmos-3M space rocket.

The launch took place on Jan. 7, 1982, 3:38 p.m. from 132/2.

For more information about the launch, click the button.

Launch to space Kosmos-3M | Strela-2M 26
Kosmos-3M | Strela-2M 26

Agency: N/A

Status: Launch Successful

Launch date: Jan. 7, 1982, 3:38 p.m. UTC

Rocket: Kosmos-3M

Launch pad: 132/2

Location: Plesetsk Cosmodrome, Russian Federation

...

Latest news about this satellite

There are no fresh news available about this satellite. Check back as we update our databases every day.


Newsletter sign-up

Weekly statistics, charts and insights to help you stay on top of the space industry.